Вернуться в каталог

STARLINK-5473

АктивенСвязьVLEO
NORAD 55663·PAYLOAD·🇺🇸 United States

Запущен Feb 17, 2023 с Vandenberg Space Force Base

Loading…

Ближайшие Пролёты (ближайшие 24 часа)

TLE

СвежийSource: CelesTrak SupGP

Эпоха: Sep 15, 2026, 02:43 UTC

1 55663C 23021AM  26258.11368056 -.00034661  00000+0 -29074-2 0  2589
2 55663  70.0021  46.8350 0003291 264.1457 281.8624 14.98312474    12

Отслеживайте STARLINK-5473 в реальном времени с AllMySat

Download on the App Store